Location: ?????????
(44.2517°N, 135.2292°E)
Time: 04:49:50
(UTC+00:00)

IRIDIUM 106 - Pass Details

Date: 19 May 2025
Orbit: 776 x 779 km, 86.4° (Epoch: 19 June)

Event Time Altitude Azimuth Distance (km) Brightness Sun altitude
Exits shadow 16:17:21 59° 194° (SSW) 894 4.3 -23.2°
Maximum altitude 16:18:21 84° 273° (W) 790 4.2 -23.1°
Drops below altitude 10° 16:23:36 10° 2° (N) 2,340 7.8 -22.7°
Sets 16:25:58 0° 3° (N) 3,272 8.8 -22.6°
